Date String (YYYY-MM-DD hh:mm:ss) UTC,Instrument flags,Ambient pressure (hPa),Sample flow (lpm),Bypass flow (lpm),Sample temperature (°C),Ambient temperature (°C),ASC tube jacket temperature (°C),LED temperature (°C),Box temperature (°C),Sample RH (%),Span deviation,Mass concentration (μg/m³),Mass concentration (μg/m³),Mass concentration (μg/m³)
DateTimeUTC,F1_M11,P_M11,Q1_M11,Q2_M11,T1_M11,T2_M11,T3_M11,T4_M11,T5_M11,U1_M11,ZSPAN_M11,X0_M11,X2_M11,X1_M11
2022-02-25 15:00:00,,0830.0,5.00,0.00,22.0,21.4,00.0,31.1,23.5,06.3,0000.6,0013.40,0009.29,0008.72
2022-02-25 15:01:00,,0830.0,5.00,0.00,21.9,21.3,00.0,31.1,23.4,06.3,0000.2,0013.18,0009.26,0008.71
2022-02-25 15:02:00,,0830.1,5.00,0.00,22.0,21.9,00.0,31.1,23.6,06.3,0000.2,0013.07,0009.22,0008.69
2022-02-25 15:03:00,,0830.1,5.01,0.00,22.1,23.0,00.0,31.1,24.0,06.2,0000.3,0013.12,0009.25,0008.69
2022-02-25 15:04:00,,0830.1,4.99,0.00,22.3,23.3,00.0,31.1,24.2,06.1,0000.8,0012.92,0009.19,0008.65
2022-02-25 15:05:00,,0830.1,5.00,0.00,22.3,23.0,00.0,31.2,24.1,06.1,0000.9,0012.88,0009.19,0008.65
2022-02-25 15:06:00,,0830.1,4.99,0.00,22.3,22.6,00.0,31.2,24.0,06.1,0000.9,0012.90,0009.17,0008.62
2022-02-25 15:07:00,,0830.1,5.01,0.00,22.2,22.3,00.0,31.2,23.9,06.1,0001.0,0012.88,0009.13,0008.60
2022-02-25 15:08:00,,0830.1,4.98,0.00,22.2,22.0,00.0,31.1,23.8,06.1,0000.4,0013.13,0009.13,0008.58
2022-02-25 15:09:00,,0830.1,5.00,0.00,22.1,21.8,00.0,31.1,23.7,06.1,-000.1,0013.28,0009.14,0008.58
2022-02-25 15:10:00,,0830.1,5.01,0.00,22.0,21.5,00.0,31.1,23.6,06.1,0000.3,0013.30,0009.15,0008.60
2022-02-25 15:11:00,,0830.2,5.00,0.00,22.0,21.3,00.0,31.1,23.5,06.1,0000.9,0013.31,0009.17,0008.62
2022-02-25 15:12:00,,0830.2,5.00,0.00,21.9,21.2,00.0,31.1,23.4,06.2,0001.3,0013.44,0009.22,0008.65
2022-02-25 15:13:00,,0830.1,5.00,0.00,21.8,21.2,00.0,31.0,23.3,06.2,0001.5,0013.47,0009.27,0008.71
2022-02-25 15:14:00,,0830.1,4.99,0.00,21.9,22.1,00.0,31.0,23.6,06.2,0001.2,0013.50,0009.31,0008.76
2022-02-25 15:15:00,,0830.3,5.01,0.00,22.1,23.1,00.0,31.1,24.0,06.2,0001.1,0013.72,0009.42,0008.84
2022-02-25 15:16:00,,0830.2,5.00,0.00,22.2,23.1,00.0,31.1,24.1,06.2,0000.9,0013.77,0009.48,0008.89
2022-02-25 15:17:00,,0830.2,4.98,0.00,22.2,22.8,00.0,31.1,24.0,06.1,0000.5,0013.83,0009.55,0008.96
2022-02-25 15:18:00,,0830.3,5.02,0.00,22.2,22.4,00.0,31.1,23.9,06.1,0000.4,0013.93,0009.65,0009.04
2022-02-25 15:19:00,,0830.2,4.98,0.00,22.1,22.1,00.0,31.1,23.7,06.2,0000.4,0013.83,0009.72,0009.11
2022-02-25 15:20:00,,0830.2,5.00,0.00,22.1,21.8,00.0,31.1,23.7,06.2,0000.7,0013.69,0009.79,0009.18
2022-02-25 15:21:00,,0830.2,5.00,0.00,22.0,21.6,00.0,31.1,23.6,06.2,0000.4,0013.77,0009.86,0009.24
2022-02-25 15:22:00,,0830.2,5.01,0.00,21.9,21.4,00.0,31.1,23.5,06.2,-000.2,0013.95,0009.95,0009.31
2022-02-25 15:23:00,,0830.2,4.99,0.00,21.9,21.3,00.0,31.0,23.4,06.2,-000.6,0013.96,0010.00,0009.38
2022-02-25 15:24:00,,0830.2,5.00,0.00,21.8,21.1,00.0,31.0,23.4,06.3,-000.7,0014.02,0010.03,0009.45
2022-02-25 15:25:00,,0830.3,4.99,0.00,21.8,21.0,00.0,31.0,23.3,06.3,-000.8,0014.05,0010.07,0009.51
2022-02-25 15:26:00,,0830.4,5.01,0.00,21.8,21.7,00.0,31.0,23.4,06.3,-000.6,0014.02,0010.10,0009.55
2022-02-25 15:27:00,,0830.4,5.00,0.00,22.0,22.8,00.0,31.0,23.8,06.2,-000.4,0014.32,0010.16,0009.60
2022-02-25 15:28:00,,0830.4,4.98,0.00,22.1,23.1,00.0,31.1,24.0,06.2,-000.0,0014.50,0010.21,0009.64
2022-02-25 15:29:00,,0830.4,5.00,0.00,22.2,22.7,00.0,31.1,24.0,06.2,0000.0,0014.50,0010.25,0009.70
2022-02-25 15:30:00,,0830.4,5.00,0.00,22.1,22.4,00.0,31.1,23.9,06.2,0000.2,0014.65,0010.34,0009.74
2022-02-25 15:31:00,,0830.4,5.01,0.00,22.1,22.1,00.0,31.1,23.8,06.2,0000.2,0014.78,0010.41,0009.79
2022-02-25 15:32:00,,0830.4,5.01,0.00,22.0,21.8,00.0,31.1,23.6,06.2,0000.3,0014.83,0010.46,0009.85
2022-02-25 15:33:00,,0830.4,5.00,0.00,22.0,21.5,00.0,31.0,23.5,06.3,0000.9,0014.79,0010.50,0009.90
2022-02-25 15:34:00,,0830.4,4.99,0.00,21.9,21.2,00.0,31.0,23.5,06.3,0001.5,0014.83,0010.55,0009.95
2022-02-25 15:35:00,,0830.4,5.01,0.00,21.8,21.1,00.0,31.0,23.4,06.4,0001.4,0014.85,0010.60,0009.97
2022-02-25 15:36:00,,0830.4,4.99,0.00,21.8,21.0,00.0,30.9,23.3,06.3,0001.4,0015.25,0010.64,0010.02
2022-02-25 15:37:00,,0830.4,5.00,0.00,21.7,20.9,00.0,30.9,23.3,06.4,0001.3,0015.62,0010.70,0010.07
2022-02-25 15:38:00,,0830.5,4.99,0.00,21.8,21.8,00.0,30.9,23.5,06.4,0001.6,0015.61,0010.74,0010.13
2022-02-25 15:39:00,,0830.4,5.02,0.00,22.0,23.0,00.0,31.0,23.8,06.4,0001.5,0015.72,0010.82,0010.21
2022-02-25 15:40:00,,0830.4,4.99,0.00,22.1,22.9,00.0,31.0,24.0,06.3,0001.5,0016.16,0010.86,0010.25
2022-02-25 15:41:00,,0830.6,4.99,0.00,22.1,22.3,00.0,31.0,23.9,06.3,0001.3,0016.24,0010.89,0010.32
2022-02-25 15:42:00,,0830.5,5.01,0.00,22.0,21.9,00.0,31.0,23.8,06.4,0001.3,0016.30,0010.94,0010.36
2022-02-25 15:43:00,,0830.5,5.00,0.00,22.0,21.5,00.0,31.0,23.6,06.4,0001.1,0016.42,0011.00,0010.41
2022-02-25 15:44:00,,0830.5,4.99,0.00,21.9,21.1,00.0,31.0,23.5,06.4,0001.1,0017.10,0011.08,0010.49
2022-02-25 15:45:00,,0830.5,5.01,0.00,21.8,20.9,00.0,30.9,23.4,06.3,0001.0,0017.40,0011.21,0010.60
2022-02-25 15:46:00,,0830.4,5.01,0.00,21.7,20.7,00.0,30.9,23.2,06.4,0001.0,0017.62,0011.30,0010.68
2022-02-25 15:47:00,,0830.4,4.99,0.00,21.7,20.5,00.0,30.9,23.2,06.4,0000.8,0017.47,0011.41,0010.75
2022-02-25 15:48:00,,0830.5,5.00,0.00,21.6,20.4,00.0,30.8,23.2,06.6,0000.7,0017.24,0011.47,0010.82
2022-02-25 15:49:00,,0830.5,5.00,0.00,21.6,20.5,00.0,30.8,23.1,06.7,0000.4,0017.21,0011.52,0010.86
2022-02-25 15:50:00,,0830.6,5.00,0.00,21.6,20.4,00.0,30.8,23.1,06.6,0000.2,0017.08,0011.58,0010.92
2022-02-25 15:51:00,,0830.5,5.01,0.00,21.5,20.3,00.0,30.7,23.0,06.5,0000.1,0016.97,0011.70,0011.02
2022-02-25 15:52:00,,0830.6,5.01,0.00,21.5,20.5,00.0,30.7,23.0,06.6,0000.1,0017.10,0011.80,0011.10
2022-02-25 15:53:00,,0830.6,5.00,0.00,21.6,21.6,00.0,30.7,23.3,06.7,0000.1,0017.29,0011.85,0011.15
2022-02-25 15:54:00,,0830.6,5.01,0.00,21.8,22.8,00.0,30.8,23.7,06.5,0000.4,0017.69,0011.96,0011.24
2022-02-25 15:55:00,,0830.6,4.99,0.00,21.9,22.7,00.0,30.8,23.8,06.5,0000.3,0017.82,0012.04,0011.31
2022-02-25 15:56:00,,0830.6,5.00,0.00,21.9,22.3,00.0,30.8,23.8,06.5,0000.3,0017.60,0012.08,0011.34
2022-02-25 15:57:00,,0830.5,4.99,0.00,21.9,21.9,00.0,30.8,23.6,06.5,0000.6,0017.52,0012.13,0011.41
2022-02-25 15:58:00,,0830.5,5.01,0.00,21.8,21.6,00.0,30.8,23.6,06.4,0000.7,0017.57,0012.23,0011.52
2022-02-25 15:59:00,,0830.5,4.98,0.00,21.8,21.3,00.0,30.8,23.5,06.5,0000.5,0017.95,0012.31,0011.60
